owner,sensor,date,latitude,longitude,sea_surface_height_above_sea_level,qcFlag 
TCOON,ioos:station:TCOON:524:1,2019-07-01T00:24:00Z,29.8672,-93.9310,1.702,11111222 
TCOON,ioos:station:TCOON:524:1,2019-07-01T01:24:00Z,29.8672,-93.9310,1.649,11111222 
TCOON,ioos:station:TCOON:524:1,2019-07-01T02:24:00Z,29.8672,-93.9310,1.626,11111222 
TCOON,ioos:station:TCOON:524:1,2019-07-01T03:24:00Z,29.8672,-93.9310,1.602,11111222 
TCOON,ioos:station:TCOON:524:1,2019-07-01T04:24:00Z,29.8672,-93.9310,1.667,11111222 
TCOON,ioos:station:TCOON:524:1,2019-07-01T05:24:00Z,29.8672,-93.9310,1.718,11111222 
TCOON,ioos:station:TCOON:524:1,2019-07-01T06:24:00Z,29.8672,-93.9310,1.78,11111222 
TCOON,ioos:station:TCOON:524:1,2019-07-01T07:24:00Z,29.8672,-93.9310,1.828,11111222 
TCOON,ioos:station:TCOON:524:1,2019-07-01T08:24:00Z,29.8672,-93.9310,1.935,11111222 
TCOON,ioos:station:TCOON:524:1,2019-07-01T09:24:00Z,29.8672,-93.9310,2.001,11111222 
TCOON,ioos:station:TCOON:524:1,2019-07-01T10:24:00Z,29.8672,-93.9310,2.0,11111222 
TCOON,ioos:station:TCOON:524:1,2019-07-01T11:24:00Z,29.8672,-93.9310,2.012,11111222 
TCOON,ioos:station:TCOON:524:1,2019-07-01T12:30:00Z,29.8672,-93.9310,2.042,11111222 
TCOON,ioos:station:TCOON:524:1,2019-07-01T13:30:00Z,29.8672,-93.9310,2.038,11111222 
TCOON,ioos:station:TCOON:524:1,2019-07-01T15:48:00Z,29.8672,-93.9310,2.027,11111222 
TCOON,ioos:station:TCOON:524:1,2019-07-01T16:30:00Z,29.8672,-93.9310,2.005,11111222 
TCOON,ioos:station:TCOON:524:1,2019-07-01T17:30:00Z,29.8672,-93.9310,1.972,11111222 
TCOON,ioos:station:TCOON:524:1,2019-07-01T18:30:00Z,29.8672,-93.9310,1.977,11111222 
TCOON,ioos:station:TCOON:524:1,2019-07-01T19:30:00Z,29.8672,-93.9310,1.955,11111222 
TCOON,ioos:station:TCOON:524:1,2019-07-01T20:30:00Z,29.8672,-93.9310,1.956,11111222 
TCOON,ioos:station:TCOON:524:1,2019-07-01T21:30:00Z,29.8672,-93.9310,1.914,11111222 
TCOON,ioos:station:TCOON:524:1,2019-07-01T22:30:00Z,29.8672,-93.9310,1.86,11111222 
TCOON,ioos:station:TCOON:524:1,2019-07-01T23:24:00Z,29.8672,-93.9310,1.8,11111222 
TCOON,ioos:station:TCOON:524:1,2019-07-02T00:24:00Z,29.8672,-93.9310,1.75,11111222 
TCOON,ioos:station:TCOON:524:1,2019-07-02T01:24:00Z,29.8672,-93.9310,1.668,11111222 
TCOON,ioos:station:TCOON:524:1,2019-07-02T02:24:00Z,29.8672,-93.9310,1.64,11111222 
TCOON,ioos:station:TCOON:524:1,2019-07-02T03:24:00Z,29.8672,-93.9310,1.63,11111222 
TCOON,ioos:station:TCOON:524:1,2019-07-02T04:24:00Z,29.8672,-93.9310,1.584,11111222 
TCOON,ioos:station:TCOON:524:1,2019-07-02T05:24:00Z,29.8672,-93.9310,1.664,11111222 
TCOON,ioos:station:TCOON:524:1,2019-07-02T06:24:00Z,29.8672,-93.9310,1.694,11111222 
TCOON,ioos:station:TCOON:524:1,2019-07-02T07:24:00Z,29.8672,-93.9310,1.768,11111222 
TCOON,ioos:station:TCOON:524:1,2019-07-02T08:24:00Z,29.8672,-93.9310,1.904,11111222 
TCOON,ioos:station:TCOON:524:1,2019-07-02T09:24:00Z,29.8672,-93.9310,1.979,11111222 
TCOON,ioos:station:TCOON:524:1,2019-07-02T10:24:00Z,29.8672,-93.9310,2.017,11111222 
TCOON,ioos:station:TCOON:524:1,2019-07-02T11:30:00Z,29.8672,-93.9310,2.034,11111222 
TCOON,ioos:station:TCOON:524:1,2019-07-02T12:24:00Z,29.8672,-93.9310,2.027,11111222 
TCOON,ioos:station:TCOON:524:1,2019-07-02T13:30:00Z,29.8672,-93.9310,2.047,11111222 
TCOON,ioos:station:TCOON:524:1,2019-07-02T14:30:00Z,29.8672,-93.9310,2.053,11111222 
TCOON,ioos:station:TCOON:524:1,2019-07-02T15:30:00Z,29.8672,-93.9310,1.971,11111222 
TCOON,ioos:station:TCOON:524:1,2019-07-02T16:30:00Z,29.8672,-93.9310,1.984,11111222 
TCOON,ioos:station:TCOON:524:1,2019-07-02T17:30:00Z,29.8672,-93.9310,1.968,11111222 
TCOON,ioos:station:TCOON:524:1,2019-07-02T18:30:00Z,29.8672,-93.9310,1.956,11111222 
TCOON,ioos:station:TCOON:524:1,2019-07-02T19:30:00Z,29.8672,-93.9310,1.986,11111222 
TCOON,ioos:station:TCOON:524:1,2019-07-02T20:30:00Z,29.8672,-93.9310,1.956,11111222 
TCOON,ioos:station:TCOON:524:1,2019-07-02T21:30:00Z,29.8672,-93.9310,1.998,11111222 
TCOON,ioos:station:TCOON:524:1,2019-07-02T22:30:00Z,29.8672,-93.9310,1.972,11111222 
TCOON,ioos:station:TCOON:524:1,2019-07-02T23:24:00Z,29.8672,-93.9310,1.906,11111222 
TCOON,ioos:station:TCOON:524:1,2019-07-03T00:24:00Z,29.8672,-93.9310,1.846,11111222 
TCOON,ioos:station:TCOON:524:1,2019-07-03T01:24:00Z,29.8672,-93.9310,1.773,11111222 
TCOON,ioos:station:TCOON:524:1,2019-07-03T02:24:00Z,29.8672,-93.9310,1.694,11111222 
TCOON,ioos:station:TCOON:524:1,2019-07-03T03:24:00Z,29.8672,-93.9310,1.645,11111222 
TCOON,ioos:station:TCOON:524:1,2019-07-03T04:24:00Z,29.8672,-93.9310,1.588,11111222 
TCOON,ioos:station:TCOON:524:1,2019-07-03T05:24:00Z,29.8672,-93.9310,1.628,11111222 
TCOON,ioos:station:TCOON:524:1,2019-07-03T06:24:00Z,29.8672,-93.9310,1.66,11111222 
TCOON,ioos:station:TCOON:524:1,2019-07-03T07:24:00Z,29.8672,-93.9310,1.721,11111222 
TCOON,ioos:station:TCOON:524:1,2019-07-03T08:24:00Z,29.8672,-93.9310,1.757,11111222 
TCOON,ioos:station:TCOON:524:1,2019-07-03T09:24:00Z,29.8672,-93.9310,1.976,11111222 
TCOON,ioos:station:TCOON:524:1,2019-07-03T10:30:00Z,29.8672,-93.9310,1.979,11111222 
TCOON,ioos:station:TCOON:524:1,2019-07-03T11:24:00Z,29.8672,-93.9310,1.992,11111222 
TCOON,ioos:station:TCOON:524:1,2019-07-03T12:24:00Z,29.8672,-93.9310,2.022,11111222 
TCOON,ioos:station:TCOON:524:1,2019-07-03T13:24:00Z,29.8672,-93.9310,2.03,11111222 
TCOON,ioos:station:TCOON:524:1,2019-07-03T14:30:00Z,29.8672,-93.9310,2.017,11111222 
TCOON,ioos:station:TCOON:524:1,2019-07-03T15:30:00Z,29.8672,-93.9310,2.036,11111222 
TCOON,ioos:station:TCOON:524:1,2019-07-03T16:30:00Z,29.8672,-93.9310,2.017,11111222 
TCOON,ioos:station:TCOON:524:1,2019-07-03T17:30:00Z,29.8672,-93.9310,2.023,11111222 
TCOON,ioos:station:TCOON:524:1,2019-07-03T18:30:00Z,29.8672,-93.9310,2.01,11111222 
TCOON,ioos:station:TCOON:524:1,2019-07-03T19:30:00Z,29.8672,-93.9310,1.996,11111222 
TCOON,ioos:station:TCOON:524:1,2019-07-03T20:30:00Z,29.8672,-93.9310,2.019,11111222 
TCOON,ioos:station:TCOON:524:1,2019-07-03T21:30:00Z,29.8672,-93.9310,2.007,11111222 
TCOON,ioos:station:TCOON:524:1,2019-07-03T22:30:00Z,29.8672,-93.9310,1.985,11111222 
TCOON,ioos:station:TCOON:524:1,2019-07-03T23:24:00Z,29.8672,-93.9310,1.939,11111222 
TCOON,ioos:station:TCOON:524:1,2019-07-04T00:24:00Z,29.8672,-93.9310,1.846,11111222 
TCOON,ioos:station:TCOON:524:1,2019-07-04T01:24:00Z,29.8672,-93.9310,1.812,11111222 
TCOON,ioos:station:TCOON:524:1,2019-07-04T02:24:00Z,29.8672,-93.9310,1.729,11111222 
TCOON,ioos:station:TCOON:524:1,2019-07-04T03:24:00Z,29.8672,-93.9310,1.644,11111222 
TCOON,ioos:station:TCOON:524:1,2019-07-04T04:24:00Z,29.8672,-93.9310,1.628,11111222 
TCOON,ioos:station:TCOON:524:1,2019-07-04T05:24:00Z,29.8672,-93.9310,1.632,11111222 
TCOON,ioos:station:TCOON:524:1,2019-07-04T06:24:00Z,29.8672,-93.9310,1.634,11111222 
TCOON,ioos:station:TCOON:524:1,2019-07-04T07:24:00Z,29.8672,-93.9310,1.67,11111222 
TCOON,ioos:station:TCOON:524:1,2019-07-04T08:24:00Z,29.8672,-93.9310,1.714,11111222 
TCOON,ioos:station:TCOON:524:1,2019-07-04T09:24:00Z,29.8672,-93.9310,1.803,11111222 
TCOON,ioos:station:TCOON:524:1,2019-07-04T10:24:00Z,29.8672,-93.9310,1.925,11111222 
TCOON,ioos:station:TCOON:524:1,2019-07-04T11:24:00Z,29.8672,-93.9310,1.981,11111222 
TCOON,ioos:station:TCOON:524:1,2019-07-04T12:24:00Z,29.8672,-93.9310,1.996,11111222 
TCOON,ioos:station:TCOON:524:1,2019-07-04T13:24:00Z,29.8672,-93.9310,2.0,11111222 
TCOON,ioos:station:TCOON:524:1,2019-07-04T14:24:00Z,29.8672,-93.9310,2.005,11111222 
TCOON,ioos:station:TCOON:524:1,2019-07-04T15:24:00Z,29.8672,-93.9310,2.006,11111222 
TCOON,ioos:station:TCOON:524:1,2019-07-04T16:24:00Z,29.8672,-93.9310,2.034,11111222 
TCOON,ioos:station:TCOON:524:1,2019-07-04T17:24:00Z,29.8672,-93.9310,2.024,11111222 
TCOON,ioos:station:TCOON:524:1,2019-07-04T18:24:00Z,29.8672,-93.9310,2.0,11111222 
TCOON,ioos:station:TCOON:524:1,2019-07-04T19:24:00Z,29.8672,-93.9310,2.009,11111222 
TCOON,ioos:station:TCOON:524:1,2019-07-04T20:30:00Z,29.8672,-93.9310,1.995,11111222 
TCOON,ioos:station:TCOON:524:1,2019-07-04T21:30:00Z,29.8672,-93.9310,2.042,11111222 
TCOON,ioos:station:TCOON:524:1,2019-07-04T22:30:00Z,29.8672,-93.9310,2.011,11111222 
TCOON,ioos:station:TCOON:524:1,2019-07-04T23:24:00Z,29.8672,-93.9310,2.013,11111222 
TCOON,ioos:station:TCOON:524:1,2019-07-05T00:24:00Z,29.8672,-93.9310,1.942,11111222 
TCOON,ioos:station:TCOON:524:1,2019-07-05T01:24:00Z,29.8672,-93.9310,1.852,11111222 
TCOON,ioos:station:TCOON:524:1,2019-07-05T02:24:00Z,29.8672,-93.9310,1.799,11111222 
TCOON,ioos:station:TCOON:524:1,2019-07-05T03:24:00Z,29.8672,-93.9310,1.73,11111222 
TCOON,ioos:station:TCOON:524:1,2019-07-05T04:24:00Z,29.8672,-93.9310,1.675,11111222 
TCOON,ioos:station:TCOON:524:1,2019-07-05T05:36:00Z,29.8672,-93.9310,1.628,11111222 
TCOON,ioos:station:TCOON:524:1,2019-07-05T06:24:00Z,29.8672,-93.9310,1.603,11111222 
TCOON,ioos:station:TCOON:524:1,2019-07-05T07:24:00Z,29.8672,-93.9310,1.615,11111222 
TCOON,ioos:station:TCOON:524:1,2019-07-05T08:24:00Z,29.8672,-93.9310,1.676,11111222 
TCOON,ioos:station:TCOON:524:1,2019-07-05T09:24:00Z,29.8672,-93.9310,1.734,11111222 
TCOON,ioos:station:TCOON:524:1,2019-07-05T10:24:00Z,29.8672,-93.9310,1.794,11111222 
TCOON,ioos:station:TCOON:524:1,2019-07-05T11:24:00Z,29.8672,-93.9310,1.942,11111222 
TCOON,ioos:station:TCOON:524:1,2019-07-05T12:24:00Z,29.8672,-93.9310,1.983,11111222 
TCOON,ioos:station:TCOON:524:1,2019-07-05T13:24:00Z,29.8672,-93.9310,1.933,11111222 
TCOON,ioos:station:TCOON:524:1,2019-07-05T14:24:00Z,29.8672,-93.9310,2.001,11111222 
TCOON,ioos:station:TCOON:524:1,2019-07-05T15:24:00Z,29.8672,-93.9310,2.005,11111222 
TCOON,ioos:station:TCOON:524:1,2019-07-05T16:30:00Z,29.8672,-93.9310,1.999,11111222 
TCOON,ioos:station:TCOON:524:1,2019-07-05T17:30:00Z,29.8672,-93.9310,2.026,11111222 
TCOON,ioos:station:TCOON:524:1,2019-07-05T18:24:00Z,29.8672,-93.9310,1.979,11111222 
TCOON,ioos:station:TCOON:524:1,2019-07-05T19:30:00Z,29.8672,-93.9310,1.964,11111222 
TCOON,ioos:station:TCOON:524:1,2019-07-05T20:30:00Z,29.8672,-93.9310,1.957,11111222 
TCOON,ioos:station:TCOON:524:1,2019-07-05T21:30:00Z,29.8672,-93.9310,1.948,11111222 
TCOON,ioos:station:TCOON:524:1,2019-07-05T22:30:00Z,29.8672,-93.9310,1.948,11111222 
TCOON,ioos:station:TCOON:524:1,2019-07-05T23:24:00Z,29.8672,-93.9310,1.956,11111222 
TCOON,ioos:station:TCOON:524:1,2019-07-06T00:24:00Z,29.8672,-93.9310,1.92,11111222 
TCOON,ioos:station:TCOON:524:1,2019-07-06T01:24:00Z,29.8672,-93.9310,1.861,11111222 
TCOON,ioos:station:TCOON:524:1,2019-07-06T02:24:00Z,29.8672,-93.9310,1.818,11111222 
TCOON,ioos:station:TCOON:524:1,2019-07-06T03:24:00Z,29.8672,-93.9310,1.751,11111222 
TCOON,ioos:station:TCOON:524:1,2019-07-06T04:24:00Z,29.8672,-93.9310,1.674,11111222 
TCOON,ioos:station:TCOON:524:1,2019-07-06T05:24:00Z,29.8672,-93.9310,1.635,11111222 
TCOON,ioos:station:TCOON:524:1,2019-07-06T06:24:00Z,29.8672,-93.9310,1.593,11111222 
TCOON,ioos:station:TCOON:524:1,2019-07-06T07:24:00Z,29.8672,-93.9310,1.583,11111222 
TCOON,ioos:station:TCOON:524:1,2019-07-06T08:24:00Z,29.8672,-93.9310,1.611,11111222 
TCOON,ioos:station:TCOON:524:1,2019-07-06T09:24:00Z,29.8672,-93.9310,1.618,11111222 
TCOON,ioos:station:TCOON:524:1,2019-07-06T10:24:00Z,29.8672,-93.9310,1.683,11111222 
TCOON,ioos:station:TCOON:524:1,2019-07-06T11:24:00Z,29.8672,-93.9310,1.75,11111222 
TCOON,ioos:station:TCOON:524:1,2019-07-06T12:24:00Z,29.8672,-93.9310,1.847,11111222 
TCOON,ioos:station:TCOON:524:1,2019-07-06T13:24:00Z,29.8672,-93.9310,1.888,11111222 
TCOON,ioos:station:TCOON:524:1,2019-07-06T14:24:00Z,29.8672,-93.9310,1.898,11111222 
TCOON,ioos:station:TCOON:524:1,2019-07-06T15:24:00Z,29.8672,-93.9310,1.907,11111222 
TCOON,ioos:station:TCOON:524:1,2019-07-06T16:24:00Z,29.8672,-93.9310,1.955,11111222 
TCOON,ioos:station:TCOON:524:1,2019-07-06T17:30:00Z,29.8672,-93.9310,1.924,11111222 
TCOON,ioos:station:TCOON:524:1,2019-07-06T18:30:00Z,29.8672,-93.9310,1.915,11111222 
TCOON,ioos:station:TCOON:524:1,2019-07-06T19:24:00Z,29.8672,-93.9310,1.863,11111222 
TCOON,ioos:station:TCOON:524:1,2019-07-06T20:24:00Z,29.8672,-93.9310,1.818,11111222 
TCOON,ioos:station:TCOON:524:1,2019-07-06T21:24:00Z,29.8672,-93.9310,1.877,11111222 
TCOON,ioos:station:TCOON:524:1,2019-07-06T22:24:00Z,29.8672,-93.9310,1.89,11111222 
TCOON,ioos:station:TCOON:524:1,2019-07-06T23:24:00Z,29.8672,-93.9310,1.892,11111222 
TCOON,ioos:station:TCOON:524:1,2019-07-07T00:24:00Z,29.8672,-93.9310,1.875,11111222 
TCOON,ioos:station:TCOON:524:1,2019-07-07T01:24:00Z,29.8672,-93.9310,1.886,11111222 
TCOON,ioos:station:TCOON:524:1,2019-07-07T02:24:00Z,29.8672,-93.9310,1.824,11111222 
TCOON,ioos:station:TCOON:524:1,2019-07-07T03:24:00Z,29.8672,-93.9310,1.859,11111222 
TCOON,ioos:station:TCOON:524:1,2019-07-07T04:24:00Z,29.8672,-93.9310,1.749,11111222 
TCOON,ioos:station:TCOON:524:1,2019-07-07T05:24:00Z,29.8672,-93.9310,1.644,11111222 
TCOON,ioos:station:TCOON:524:1,2019-07-07T06:24:00Z,29.8672,-93.9310,1.635,11111222 
TCOON,ioos:station:TCOON:524:1,2019-07-07T07:24:00Z,29.8672,-93.9310,1.61,11111222 
TCOON,ioos:station:TCOON:524:1,2019-07-07T08:24:00Z,29.8672,-93.9310,1.622,11111222 
TCOON,ioos:station:TCOON:524:1,2019-07-07T09:24:00Z,29.8672,-93.9310,1.655,11111222 
TCOON,ioos:station:TCOON:524:1,2019-07-07T10:24:00Z,29.8672,-93.9310,1.664,11111222 
TCOON,ioos:station:TCOON:524:1,2019-07-07T11:24:00Z,29.8672,-93.9310,1.722,11111222 
TCOON,ioos:station:TCOON:524:1,2019-07-07T12:24:00Z,29.8672,-93.9310,1.801,11111222 
TCOON,ioos:station:TCOON:524:1,2019-07-07T13:24:00Z,29.8672,-93.9310,1.861,11111222 
TCOON,ioos:station:TCOON:524:1,2019-07-07T14:24:00Z,29.8672,-93.9310,1.913,11111222 
TCOON,ioos:station:TCOON:524:1,2019-07-07T15:30:00Z,29.8672,-93.9310,1.905,11111222 
TCOON,ioos:station:TCOON:524:1,2019-07-07T16:24:00Z,29.8672,-93.9310,1.888,11111222 
TCOON,ioos:station:TCOON:524:1,2019-07-07T17:24:00Z,29.8672,-93.9310,1.889,11111222 
TCOON,ioos:station:TCOON:524:1,2019-07-07T18:24:00Z,29.8672,-93.9310,1.921,11111222 
TCOON,ioos:station:TCOON:524:1,2019-07-07T19:30:00Z,29.8672,-93.9310,1.906,11111222 
TCOON,ioos:station:TCOON:524:1,2019-07-07T20:30:00Z,29.8672,-93.9310,1.865,11111222 
TCOON,ioos:station:TCOON:524:1,2019-07-07T21:30:00Z,29.8672,-93.9310,1.832,11111222 
TCOON,ioos:station:TCOON:524:1,2019-07-07T22:30:00Z,29.8672,-93.9310,1.844,11111222 
TCOON,ioos:station:TCOON:524:1,2019-07-07T23:24:00Z,29.8672,-93.9310,1.837,11111222 
TCOON,ioos:station:TCOON:524:1,2019-07-08T00:24:00Z,29.8672,-93.9310,1.881,11111222 
TCOON,ioos:station:TCOON:524:1,2019-07-08T01:24:00Z,29.8672,-93.9310,1.889,11111222 
TCOON,ioos:station:TCOON:524:1,2019-07-08T02:24:00Z,29.8672,-93.9310,1.855,11111222 
TCOON,ioos:station:TCOON:524:1,2019-07-08T03:24:00Z,29.8672,-93.9310,1.897,11111222 
TCOON,ioos:station:TCOON:524:1,2019-07-08T04:24:00Z,29.8672,-93.9310,1.829,11111222 
TCOON,ioos:station:TCOON:524:1,2019-07-08T05:24:00Z,29.8672,-93.9310,1.795,11111222 
TCOON,ioos:station:TCOON:524:1,2019-07-08T06:24:00Z,29.8672,-93.9310,1.754,11111222 
TCOON,ioos:station:TCOON:524:1,2019-07-08T07:24:00Z,29.8672,-93.9310,1.664,11111222 
TCOON,ioos:station:TCOON:524:1,2019-07-08T08:24:00Z,29.8672,-93.9310,1.704,11111222 
TCOON,ioos:station:TCOON:524:1,2019-07-08T09:24:00Z,29.8672,-93.9310,1.697,11111222 
TCOON,ioos:station:TCOON:524:1,2019-07-08T10:24:00Z,29.8672,-93.9310,1.685,11111222 
TCOON,ioos:station:TCOON:524:1,2019-07-08T11:24:00Z,29.8672,-93.9310,1.718,11111222 
TCOON,ioos:station:TCOON:524:1,2019-07-08T12:24:00Z,29.8672,-93.9310,1.721,11111222 
TCOON,ioos:station:TCOON:524:1,2019-07-08T13:30:00Z,29.8672,-93.9310,1.77,11111222 
TCOON,ioos:station:TCOON:524:1,2019-07-08T14:30:00Z,29.8672,-93.9310,1.904,11111222 
TCOON,ioos:station:TCOON:524:1,2019-07-08T15:30:00Z,29.8672,-93.9310,1.839,11111222 
TCOON,ioos:station:TCOON:524:1,2019-07-08T16:30:00Z,29.8672,-93.9310,1.87,11111222 
TCOON,ioos:station:TCOON:524:1,2019-07-08T17:36:00Z,29.8672,-93.9310,1.867,11111222 
TCOON,ioos:station:TCOON:524:1,2019-07-08T18:30:00Z,29.8672,-93.9310,1.869,11111222 
TCOON,ioos:station:TCOON:524:1,2019-07-08T19:30:00Z,29.8672,-93.9310,1.879,11111222 
TCOON,ioos:station:TCOON:524:1,2019-07-08T20:30:00Z,29.8672,-93.9310,1.82,11111222 
TCOON,ioos:station:TCOON:524:1,2019-07-08T21:30:00Z,29.8672,-93.9310,1.752,11111222 
TCOON,ioos:station:TCOON:524:1,2019-07-08T22:24:00Z,29.8672,-93.9310,1.711,11111222 
TCOON,ioos:station:TCOON:524:1,2019-07-08T23:24:00Z,29.8672,-93.9310,1.765,11111222 
TCOON,ioos:station:TCOON:524:1,2019-07-09T00:24:00Z,29.8672,-93.9310,1.778,11111222 
TCOON,ioos:station:TCOON:524:1,2019-07-09T01:24:00Z,29.8672,-93.9310,1.848,11111222 
TCOON,ioos:station:TCOON:524:1,2019-07-09T02:24:00Z,29.8672,-93.9310,1.781,11111222 
TCOON,ioos:station:TCOON:524:1,2019-07-09T03:24:00Z,29.8672,-93.9310,1.817,11111222 
TCOON,ioos:station:TCOON:524:1,2019-07-09T04:24:00Z,29.8672,-93.9310,1.844,11111222 
TCOON,ioos:station:TCOON:524:1,2019-07-09T05:24:00Z,29.8672,-93.9310,1.865,11111222 
TCOON,ioos:station:TCOON:524:1,2019-07-09T06:24:00Z,29.8672,-93.9310,1.854,11111222 
TCOON,ioos:station:TCOON:524:1,2019-07-09T07:24:00Z,29.8672,-93.9310,1.816,11111222 
TCOON,ioos:station:TCOON:524:1,2019-07-09T08:24:00Z,29.8672,-93.9310,1.773,11111222 
TCOON,ioos:station:TCOON:524:1,2019-07-09T09:24:00Z,29.8672,-93.9310,1.769,11111222 
TCOON,ioos:station:TCOON:524:1,2019-07-09T10:24:00Z,29.8672,-93.9310,1.763,11111222 
TCOON,ioos:station:TCOON:524:1,2019-07-09T11:24:00Z,29.8672,-93.9310,1.763,11111222 
TCOON,ioos:station:TCOON:524:1,2019-07-09T12:30:00Z,29.8672,-93.9310,1.764,11111222 
TCOON,ioos:station:TCOON:524:1,2019-07-09T13:30:00Z,29.8672,-93.9310,1.758,11111222 
TCOON,ioos:station:TCOON:524:1,2019-07-09T14:30:00Z,29.8672,-93.9310,1.8,11111222 
TCOON,ioos:station:TCOON:524:1,2019-07-09T15:24:00Z,29.8672,-93.9310,1.829,11111222 
TCOON,ioos:station:TCOON:524:1,2019-07-09T16:30:00Z,29.8672,-93.9310,1.9,11111222 
TCOON,ioos:station:TCOON:524:1,2019-07-09T17:30:00Z,29.8672,-93.9310,1.872,11111222 
TCOON,ioos:station:TCOON:524:1,2019-07-09T18:30:00Z,29.8672,-93.9310,1.847,11111222 
TCOON,ioos:station:TCOON:524:1,2019-07-09T19:30:00Z,29.8672,-93.9310,1.837,11111222 
TCOON,ioos:station:TCOON:524:1,2019-07-09T20:30:00Z,29.8672,-93.9310,1.785,11111222 
TCOON,ioos:station:TCOON:524:1,2019-07-09T21:30:00Z,29.8672,-93.9310,1.702,11111222 
TCOON,ioos:station:TCOON:524:1,2019-07-09T22:30:00Z,29.8672,-93.9310,1.707,11111222 
TCOON,ioos:station:TCOON:524:1,2019-07-09T23:24:00Z,29.8672,-93.9310,1.701,11111222 
TCOON,ioos:station:TCOON:524:1,2019-07-10T00:24:00Z,29.8672,-93.9310,1.698,11111222 
TCOON,ioos:station:TCOON:524:1,2019-07-10T01:24:00Z,29.8672,-93.9310,1.688,11111222 
TCOON,ioos:station:TCOON:524:1,2019-07-10T02:24:00Z,29.8672,-93.9310,1.695,11111222 
TCOON,ioos:station:TCOON:524:1,2019-07-10T03:24:00Z,29.8672,-93.9310,1.749,11111222 
TCOON,ioos:station:TCOON:524:1,2019-07-10T04:24:00Z,29.8672,-93.9310,1.789,11111222 
TCOON,ioos:station:TCOON:524:1,2019-07-10T05:24:00Z,29.8672,-93.9310,1.812,11111222 
TCOON,ioos:station:TCOON:524:1,2019-07-10T06:24:00Z,29.8672,-93.9310,1.8,11111222 
TCOON,ioos:station:TCOON:524:1,2019-07-10T07:24:00Z,29.8672,-93.9310,1.804,11111222 
TCOON,ioos:station:TCOON:524:1,2019-07-10T08:24:00Z,29.8672,-93.9310,1.826,11111222 
TCOON,ioos:station:TCOON:524:1,2019-07-10T09:24:00Z,29.8672,-93.9310,1.782,11111222 
TCOON,ioos:station:TCOON:524:1,2019-07-10T10:24:00Z,29.8672,-93.9310,1.755,11111222 
TCOON,ioos:station:TCOON:524:1,2019-07-10T11:24:00Z,29.8672,-93.9310,1.729,11111222 
TCOON,ioos:station:TCOON:524:1,2019-07-10T12:24:00Z,29.8672,-93.9310,1.724,11111222 
TCOON,ioos:station:TCOON:524:1,2019-07-10T13:24:00Z,29.8672,-93.9310,1.758,11111222 
TCOON,ioos:station:TCOON:524:1,2019-07-10T14:24:00Z,29.8672,-93.9310,1.74,11111222 
TCOON,ioos:station:TCOON:524:1,2019-07-10T15:30:00Z,29.8672,-93.9310,1.743,11111222 
TCOON,ioos:station:TCOON:524:1,2019-07-10T16:30:00Z,29.8672,-93.9310,1.781,11111222 
TCOON,ioos:station:TCOON:524:1,2019-07-10T17:30:00Z,29.8672,-93.9310,1.784,11111222 
TCOON,ioos:station:TCOON:524:1,2019-07-10T18:30:00Z,29.8672,-93.9310,1.704,11111222 
TCOON,ioos:station:TCOON:524:1,2019-07-10T19:30:00Z,29.8672,-93.9310,1.776,11111222 
TCOON,ioos:station:TCOON:524:1,2019-07-10T20:30:00Z,29.8672,-93.9310,1.74,11111222 
TCOON,ioos:station:TCOON:524:1,2019-07-10T21:30:00Z,29.8672,-93.9310,1.642,11111222 
TCOON,ioos:station:TCOON:524:1,2019-07-10T22:30:00Z,29.8672,-93.9310,1.605,11111222 
TCOON,ioos:station:TCOON:524:1,2019-07-10T23:24:00Z,29.8672,-93.9310,1.591,11111222 
TCOON,ioos:station:TCOON:524:1,2019-07-11T00:24:00Z,29.8672,-93.9310,1.597,11111222 
TCOON,ioos:station:TCOON:524:1,2019-07-11T01:24:00Z,29.8672,-93.9310,1.576,11111222 
TCOON,ioos:station:TCOON:524:1,2019-07-11T02:24:00Z,29.8672,-93.9310,1.583,11111222 
TCOON,ioos:station:TCOON:524:1,2019-07-11T03:24:00Z,29.8672,-93.9310,1.609,11111222 
TCOON,ioos:station:TCOON:524:1,2019-07-11T04:24:00Z,29.8672,-93.9310,1.67,11111222 
TCOON,ioos:station:TCOON:524:1,2019-07-11T05:24:00Z,29.8672,-93.9310,1.711,11111222 
TCOON,ioos:station:TCOON:524:1,2019-07-11T06:24:00Z,29.8672,-93.9310,1.734,11111222 
TCOON,ioos:station:TCOON:524:1,2019-07-11T07:24:00Z,29.8672,-93.9310,1.77,11111222 
TCOON,ioos:station:TCOON:524:1,2019-07-11T08:24:00Z,29.8672,-93.9310,1.778,11111222 
TCOON,ioos:station:TCOON:524:1,2019-07-11T09:24:00Z,29.8672,-93.9310,1.751,11111222 
TCOON,ioos:station:TCOON:524:1,2019-07-11T10:24:00Z,29.8672,-93.9310,1.752,11111222 
TCOON,ioos:station:TCOON:524:1,2019-07-11T11:24:00Z,29.8672,-93.9310,1.737,11111222 
TCOON,ioos:station:TCOON:524:1,2019-07-11T12:24:00Z,29.8672,-93.9310,1.731,11111222 
TCOON,ioos:station:TCOON:524:1,2019-07-11T13:30:00Z,29.8672,-93.9310,1.73,11111222 
TCOON,ioos:station:TCOON:524:1,2019-07-11T14:30:00Z,29.8672,-93.9310,1.726,11111222 
TCOON,ioos:station:TCOON:524:1,2019-07-11T15:30:00Z,29.8672,-93.9310,1.726,11111222 
TCOON,ioos:station:TCOON:524:1,2019-07-11T16:30:00Z,29.8672,-93.9310,1.734,11111222 
TCOON,ioos:station:TCOON:524:1,2019-07-11T17:30:00Z,29.8672,-93.9310,1.728,11111222 
TCOON,ioos:station:TCOON:524:1,2019-07-11T18:24:00Z,29.8672,-93.9310,1.748,11111222 
TCOON,ioos:station:TCOON:524:1,2019-07-11T19:30:00Z,29.8672,-93.9310,1.735,11111222 
TCOON,ioos:station:TCOON:524:1,2019-07-11T20:30:00Z,29.8672,-93.9310,1.682,11111222 
TCOON,ioos:station:TCOON:524:1,2019-07-11T21:30:00Z,29.8672,-93.9310,1.623,11111222 
TCOON,ioos:station:TCOON:524:1,2019-07-11T22:30:00Z,29.8672,-93.9310,1.603,11111222 
TCOON,ioos:station:TCOON:524:1,2019-07-11T23:24:00Z,29.8672,-93.9310,1.505,11111222 
TCOON,ioos:station:TCOON:524:1,2019-07-12T00:24:00Z,29.8672,-93.9310,1.539,11111222 
TCOON,ioos:station:TCOON:524:1,2019-07-12T01:24:00Z,29.8672,-93.9310,1.527,11111222 
TCOON,ioos:station:TCOON:524:1,2019-07-12T02:24:00Z,29.8672,-93.9310,1.544,11111222 
TCOON,ioos:station:TCOON:524:1,2019-07-12T03:24:00Z,29.8672,-93.9310,1.579,11111222 
TCOON,ioos:station:TCOON:524:1,2019-07-12T04:24:00Z,29.8672,-93.9310,1.591,11111222 
TCOON,ioos:station:TCOON:524:1,2019-07-12T05:24:00Z,29.8672,-93.9310,1.692,11111222 
TCOON,ioos:station:TCOON:524:1,2019-07-12T06:24:00Z,29.8672,-93.9310,1.722,11111222 
TCOON,ioos:station:TCOON:524:1,2019-07-12T07:24:00Z,29.8672,-93.9310,1.743,11111222 
TCOON,ioos:station:TCOON:524:1,2019-07-12T08:24:00Z,29.8672,-93.9310,1.82,11111222 
TCOON,ioos:station:TCOON:524:1,2019-07-12T09:24:00Z,29.8672,-93.9310,1.812,11111222 
TCOON,ioos:station:TCOON:524:1,2019-07-12T10:24:00Z,29.8672,-93.9310,1.831,11111222 
TCOON,ioos:station:TCOON:524:1,2019-07-12T11:24:00Z,29.8672,-93.9310,1.857,11111222 
TCOON,ioos:station:TCOON:524:1,2019-07-12T12:24:00Z,29.8672,-93.9310,1.87,11111222 
TCOON,ioos:station:TCOON:524:1,2019-07-12T13:24:00Z,29.8672,-93.9310,1.825,11111222 
TCOON,ioos:station:TCOON:524:1,2019-07-12T14:24:00Z,29.8672,-93.9310,1.85,11111222 
TCOON,ioos:station:TCOON:524:1,2019-07-12T15:30:00Z,29.8672,-93.9310,1.845,11111222 
TCOON,ioos:station:TCOON:524:1,2019-07-12T16:24:00Z,29.8672,-93.9310,1.853,11111222 
TCOON,ioos:station:TCOON:524:1,2019-07-12T17:24:00Z,29.8672,-93.9310,1.886,11111222 